Station;Bremen-Oslebshausen;Bremen-Ost;Bremerhaven Hansastraße
Messkomponente;Feinstaub (PM2,5);Feinstaub (PM2,5);Feinstaub (PM2,5)
Einheit;µg/m³;µg/m³;µg/m³
Messzeit (Angaben in MESZ bzw. MEZ);Stundenwerte;Stundenwerte;Stundenwerte

01.03.2024 00:00;13;13;13
01.03.2024 01:00;14;14;14
01.03.2024 02:00;18;17;14
01.03.2024 03:00;12;18;16
01.03.2024 04:00;12;19;18
01.03.2024 05:00;13;20;20
01.03.2024 06:00;20;21;21
01.03.2024 07:00;16;22;23
01.03.2024 08:00;24;22;24
01.03.2024 09:00;21;22;23
01.03.2024 10:00;22;21;24
01.03.2024 11:00;26;19;21
01.03.2024 12:00;22;15;21
01.03.2024 13:00;15;13;12
01.03.2024 14:00;20;14;6
01.03.2024 15:00;21;11;6
01.03.2024 16:00;16;10;7
01.03.2024 17:00;9;11;9
01.03.2024 18:00;15;13;8
01.03.2024 19:00;12;15;9
01.03.2024 20:00;9;15;12
01.03.2024 21:00;9;11;15
01.03.2024 22:00;10;11;15
01.03.2024 23:00;11;12;12
02.03.2024 00:00;11;12;11
02.03.2024 01:00;9;12;12
02.03.2024 02:00;7;13;14
02.03.2024 03:00;10;13;15
02.03.2024 04:00;4;14;15
02.03.2024 05:00;5;14;14
02.03.2024 06:00;7;12;14
02.03.2024 07:00;10;11;13
02.03.2024 08:00;10;12;12
02.03.2024 09:00;9;13;12
02.03.2024 10:00;8;14;12
02.03.2024 11:00;11;13;11
02.03.2024 12:00;16;12;9
02.03.2024 13:00;14;10;8
02.03.2024 14:00;13;8;8
02.03.2024 15:00;16;6;9
02.03.2024 16:00;9;4;8
02.03.2024 17:00;9;5;7
02.03.2024 18:00;9;5;8
02.03.2024 19:00;7;6;9
02.03.2024 20:00;6;5;9
02.03.2024 21:00;4;5;10
02.03.2024 22:00;9;8;9
02.03.2024 23:00;10;13;9
03.03.2024 00:00;10;14;11
03.03.2024 01:00;12;15;14
03.03.2024 02:00;18;16;18
03.03.2024 03:00;13;18;19
03.03.2024 04:00;18;17;20
03.03.2024 05:00;11;17;21
03.03.2024 06:00;13;16;21
03.03.2024 07:00;14;14;23
03.03.2024 08:00;12;14;24
03.03.2024 09:00;19;20;24
03.03.2024 10:00;24;22;23
03.03.2024 11:00;22;21;20
03.03.2024 12:00;30;20;22
03.03.2024 13:00;29;22;24
03.03.2024 14:00;25;23;24
03.03.2024 15:00;26;20;24
03.03.2024 16:00;29;16;22
03.03.2024 17:00;23;15;21
03.03.2024 18:00;16;15;22
03.03.2024 19:00;12;15;23
03.03.2024 20:00;13;17;25
03.03.2024 21:00;15;18;46
03.03.2024 22:00;13;18;54
03.03.2024 23:00;16;18;51
04.03.2024 00:00;20;17;44
04.03.2024 01:00;26;18;39
04.03.2024 02:00;29;22;25
04.03.2024 03:00;29;24;14
04.03.2024 04:00;26;20;13
04.03.2024 05:00;27;18;21
04.03.2024 06:00;23;22;20
04.03.2024 07:00;17;24;29
04.03.2024 08:00;15;25;39
04.03.2024 09:00;17;33;43
04.03.2024 10:00;22;42;48
04.03.2024 11:00;36;44;47
04.03.2024 12:00;35;35;44
04.03.2024 13:00;42;32;41
04.03.2024 14:00;29;36;39
04.03.2024 15:00;38;46;44
04.03.2024 16:00;44;46;49
04.03.2024 17:00;48;47;50
04.03.2024 18:00;42;46;55
04.03.2024 19:00;48;46;56
04.03.2024 20:00;55;44;59
04.03.2024 21:00;60;41;47
04.03.2024 22:00;64;43;28
04.03.2024 23:00;50;39;26
05.03.2024 00:00;28;30;23
05.03.2024 01:00;24;27;20
05.03.2024 02:00;18;24;18
05.03.2024 03:00;21;19;17
05.03.2024 04:00;23;16;17
05.03.2024 05:00;18;15;17
05.03.2024 06:00;21;15;18
05.03.2024 07:00;17;15;20
05.03.2024 08:00;17;16;20
05.03.2024 09:00;17;18;20
05.03.2024 10:00;24;21;19
05.03.2024 11:00;15;20;17
05.03.2024 12:00;21;18;16
05.03.2024 13:00;14;14;12
05.03.2024 14:00;20;14;10
05.03.2024 15:00;16;13;11
05.03.2024 16:00;17;13;12
05.03.2024 17:00;17;12;11
05.03.2024 18:00;15;8;11
05.03.2024 19:00;14;8;12
05.03.2024 20:00;15;7;12
05.03.2024 21:00;8;8;11
05.03.2024 22:00;8;8;13
05.03.2024 23:00;9;8;14
06.03.2024 00:00;10;8;15
06.03.2024 01:00;8;9;15
06.03.2024 02:00;6;10;17
06.03.2024 03:00;5;11;17
06.03.2024 04:00;5;11;18
06.03.2024 05:00;5;11;17
06.03.2024 06:00;4;12;15
06.03.2024 07:00;6;12;13
06.03.2024 08:00;7;12;13
06.03.2024 09:00;5;13;12
06.03.2024 10:00;11;13;11
06.03.2024 11:00;10;12;11
06.03.2024 12:00;13;13;12
06.03.2024 13:00;13;13;13
06.03.2024 14:00;14;12;15
06.03.2024 15:00;18;13;16
06.03.2024 16:00;16;14;16
06.03.2024 17:00;10;16;18
06.03.2024 18:00;14;18;19
06.03.2024 19:00;9;19;16
06.03.2024 20:00;16;20;15
06.03.2024 21:00;17;17;13
06.03.2024 22:00;16;14;14
06.03.2024 23:00;12;11;14
07.03.2024 00:00;12;10;14
07.03.2024 01:00;14;9;15
07.03.2024 02:00;10;10;18
07.03.2024 03:00;9;11;24
07.03.2024 04:00;9;20;24
07.03.2024 05:00;12;15;21
07.03.2024 06:00;15;13;20
07.03.2024 07:00;16;22;18
07.03.2024 08:00;20;25;18
07.03.2024 09:00;17;23;13
07.03.2024 10:00;24;21;11
07.03.2024 11:00;21;17;11
07.03.2024 12:00;16;13;11
07.03.2024 13:00;19;12;12
07.03.2024 14:00;17;12;12
07.03.2024 15:00;14;14;14
07.03.2024 16:00;20;16;16
07.03.2024 17:00;12;16;17
07.03.2024 18:00;13;13;19
07.03.2024 19:00;11;15;21
07.03.2024 20:00;18;17;32
07.03.2024 21:00;15;18;32
07.03.2024 22:00;13;18;27
07.03.2024 23:00;18;18;24
08.03.2024 00:00;17;17;21
08.03.2024 01:00;22;17;21
08.03.2024 02:00;16;17;22
08.03.2024 03:00;17;17;22
08.03.2024 04:00;17;17;22
08.03.2024 05:00;10;17;21
08.03.2024 06:00;12;18;21
08.03.2024 07:00;20;19;22
08.03.2024 08:00;16;21;24
08.03.2024 09:00;18;22;25
08.03.2024 10:00;23;21;25
08.03.2024 11:00;24;20;25
08.03.2024 12:00;28;20;25
08.03.2024 13:00;26;19;26
08.03.2024 14:00;23;18;26
08.03.2024 15:00;19;18;25
08.03.2024 16:00;23;18;24
08.03.2024 17:00;23;21;22
08.03.2024 18:00;20;20;18
08.03.2024 19:00;16;22;18
08.03.2024 20:00;18;22;19
08.03.2024 21:00;17;23;20
08.03.2024 22:00;17;21;24
08.03.2024 23:00;21;19;24
09.03.2024 00:00;18;19;22
09.03.2024 01:00;23;21;20
09.03.2024 02:00;24;22;21
09.03.2024 03:00;16;24;21
09.03.2024 04:00;12;26;22
09.03.2024 05:00;16;27;22
09.03.2024 06:00;21;27;23
09.03.2024 07:00;23;27;22
09.03.2024 08:00;23;26;22
09.03.2024 09:00;26;25;22
09.03.2024 10:00;23;23;24
09.03.2024 11:00;32;20;25
09.03.2024 12:00;28;17;26
09.03.2024 13:00;24;17;26
09.03.2024 14:00;21;18;26
09.03.2024 15:00;21;16;23
09.03.2024 16:00;21;15;19
09.03.2024 17:00;19;17;19
09.03.2024 18:00;19;19;21
09.03.2024 19:00;15;20;21
09.03.2024 20:00;16;22;21
09.03.2024 21:00;9;22;23
09.03.2024 22:00;21;22;24
09.03.2024 23:00;22;22;30
10.03.2024 00:00;18;21;33
10.03.2024 01:00;15;21;32
10.03.2024 02:00;11;22;33
10.03.2024 03:00;9;25;36
10.03.2024 04:00;14;28;32
10.03.2024 05:00;13;30;31
10.03.2024 06:00;16;30;29
10.03.2024 07:00;24;29;30
10.03.2024 08:00;23;28;31
10.03.2024 09:00;24;28;30
10.03.2024 10:00;32;26;30
10.03.2024 11:00;27;24;30
10.03.2024 12:00;28;22;28
10.03.2024 13:00;27;20;28
10.03.2024 14:00;25;19;27
10.03.2024 15:00;26;19;27
10.03.2024 16:00;22;19;28
10.03.2024 17:00;20;20;30
10.03.2024 18:00;23;21;32
10.03.2024 19:00;23;22;31
10.03.2024 20:00;23;23;33
10.03.2024 21:00;16;26;32
10.03.2024 22:00;20;25;29
10.03.2024 23:00;18;25;27
11.03.2024 00:00;27;24;25
11.03.2024 01:00;26;23;24
11.03.2024 02:00;29;21;24
11.03.2024 03:00;22;21;24
11.03.2024 04:00;21;20;23
11.03.2024 05:00;21;20;21
11.03.2024 06:00;21;21;20
11.03.2024 07:00;19;22;20
11.03.2024 08:00;18;22;20
11.03.2024 09:00;20;21;21
11.03.2024 10:00;20;20;20
11.03.2024 11:00;20;19;20
11.03.2024 12:00;24;19;20
11.03.2024 13:00;27;19;20
11.03.2024 14:00;22;21;21
11.03.2024 15:00;23;21;21
11.03.2024 16:00;21;15;23
11.03.2024 17:00;18;6;25
11.03.2024 18:00;15;8;27
11.03.2024 19:00;4;6;29
11.03.2024 20:00;9;5;31
11.03.2024 21:00;9;5;33
11.03.2024 22:00;7;6;32
11.03.2024 23:00;6;6;26
12.03.2024 00:00;5;5;18
12.03.2024 01:00;5;6;23
12.03.2024 02:00;4;8;30
12.03.2024 03:00;4;9;30
12.03.2024 04:00;3;12;28
12.03.2024 05:00;3;14;24
12.03.2024 06:00;3;15;21
12.03.2024 07:00;6;14;20
12.03.2024 08:00;6;18;20
12.03.2024 09:00;13;23;23
12.03.2024 10:00;13;29;26
12.03.2024 11:00;22;31;27
12.03.2024 12:00;27;26;27
12.03.2024 13:00;19;21;26
12.03.2024 14:00;23;21;26
12.03.2024 15:00;25;27;29
12.03.2024 16:00;27;25;39
12.03.2024 17:00;25;17;28
12.03.2024 18:00;18;12;17
12.03.2024 19:00;25;16;19
12.03.2024 20:00;19;17;22
12.03.2024 21:00;19;19;24
12.03.2024 22:00;12;19;23
12.03.2024 23:00;20;20;26
13.03.2024 00:00;18;20;27
13.03.2024 01:00;16;21;29
13.03.2024 02:00;18;21;35
13.03.2024 03:00;13;24;37
13.03.2024 04:00;22;23;36
13.03.2024 05:00;21;21;34
13.03.2024 06:00;23;20;34
13.03.2024 07:00;23;18;33
13.03.2024 08:00;22;19;31
13.03.2024 09:00;23;22;25
13.03.2024 10:00;19;20;22
13.03.2024 11:00;21;15;20
13.03.2024 12:00;30;;19
13.03.2024 13:00;30;15;20
13.03.2024 14:00;12;16;23
13.03.2024 15:00;19;15;22
13.03.2024 16:00;22;15;22
13.03.2024 17:00;24;15;18
13.03.2024 18:00;18;14;15
13.03.2024 19:00;16;14;13
13.03.2024 20:00;15;13;13
13.03.2024 21:00;5;11;9
13.03.2024 22:00;6;11;11
13.03.2024 23:00;8;14;11
14.03.2024 00:00;7;18;11
14.03.2024 01:00;9;18;14
14.03.2024 02:00;8;16;17
14.03.2024 03:00;7;12;16
14.03.2024 04:00;7;11;13
14.03.2024 05:00;5;10;11
14.03.2024 06:00;7;10;11
14.03.2024 07:00;11;10;11
14.03.2024 08:00;10;11;11
14.03.2024 09:00;8;11;10
14.03.2024 10:00;11;11;10
14.03.2024 11:00;14;10;13
14.03.2024 12:00;13;9;10
14.03.2024 13:00;13;7;9
14.03.2024 14:00;16;6;8
14.03.2024 15:00;10;6;7
14.03.2024 16:00;11;6;21
14.03.2024 17:00;12;7;19
14.03.2024 18:00;4;9;11
14.03.2024 19:00;12;10;15
14.03.2024 20:00;6;12;18
14.03.2024 21:00;10;13;18
14.03.2024 22:00;8;12;17
14.03.2024 23:00;9;11;14
15.03.2024 00:00;10;10;13
15.03.2024 01:00;13;10;12
15.03.2024 02:00;23;10;12
15.03.2024 03:00;20;10;13
15.03.2024 04:00;10;10;13
15.03.2024 05:00;15;10;14
15.03.2024 06:00;7;11;14
15.03.2024 07:00;7;11;14
15.03.2024 08:00;11;11;14
15.03.2024 09:00;12;10;14
15.03.2024 10:00;14;12;15
15.03.2024 11:00;15;13;41
15.03.2024 12:00;17;11;48
15.03.2024 13:00;13;9;15
15.03.2024 14:00;16;9;12
15.03.2024 15:00;11;7;11
15.03.2024 16:00;15;6;9
15.03.2024 17:00;8;6;10
15.03.2024 18:00;7;6;9
15.03.2024 19:00;5;6;8
15.03.2024 20:00;5;8;10
15.03.2024 21:00;7;8;10
15.03.2024 22:00;5;7;11
15.03.2024 23:00;6;6;10
16.03.2024 00:00;5;6;9
16.03.2024 01:00;5;7;8
16.03.2024 02:00;5;7;8
16.03.2024 03:00;4;7;8
16.03.2024 04:00;4;8;9
16.03.2024 05:00;5;8;8
16.03.2024 06:00;2;8;6
16.03.2024 07:00;3;6;6
16.03.2024 08:00;2;5;6
16.03.2024 09:00;2;4;5
16.03.2024 10:00;2;3;4
16.03.2024 11:00;2;2;3
16.03.2024 12:00;1;2;2
16.03.2024 13:00;1;2;3
16.03.2024 14:00;1;2;3
16.03.2024 15:00;2;2;4
16.03.2024 16:00;3;2;4
16.03.2024 17:00;1;2;4
16.03.2024 18:00;1;2;5
16.03.2024 19:00;1;3;6
16.03.2024 20:00;1;4;6
16.03.2024 21:00;1;4;6
16.03.2024 22:00;1;5;5
16.03.2024 23:00;1;6;5
17.03.2024 00:00;1;7;5
17.03.2024 01:00;1;6;4
17.03.2024 02:00;1;6;4
17.03.2024 03:00;1;6;4
17.03.2024 04:00;1;7;2
17.03.2024 05:00;1;6;3
17.03.2024 06:00;1;7;4
17.03.2024 07:00;1;7;4
17.03.2024 08:00;2;7;5
17.03.2024 09:00;4;7;6
17.03.2024 10:00;8;8;6
17.03.2024 11:00;6;5;5
17.03.2024 12:00;8;4;4
17.03.2024 13:00;10;5;4
17.03.2024 14:00;10;4;5
17.03.2024 15:00;5;3;5
17.03.2024 16:00;9;2;6
17.03.2024 17:00;5;3;6
17.03.2024 18:00;1;4;6
17.03.2024 19:00;5;4;6
17.03.2024 20:00;6;5;6
17.03.2024 21:00;3;5;5
17.03.2024 22:00;5;4;5
17.03.2024 23:00;1;4;4
18.03.2024 00:00;5;3;4
18.03.2024 01:00;5;3;4
18.03.2024 02:00;5;4;6
18.03.2024 03:00;4;5;5
18.03.2024 04:00;4;5;5
18.03.2024 05:00;3;5;5
18.03.2024 06:00;3;5;4
18.03.2024 07:00;3;5;5
18.03.2024 08:00;2;6;5
18.03.2024 09:00;2;6;5
18.03.2024 10:00;2;6;4
18.03.2024 11:00;3;7;5
18.03.2024 12:00;3;8;5
18.03.2024 13:00;10;9;5
18.03.2024 14:00;11;9;6
18.03.2024 15:00;9;9;7
18.03.2024 16:00;5;10;8
18.03.2024 17:00;7;14;10
18.03.2024 18:00;8;13;10
18.03.2024 19:00;11;12;10
18.03.2024 20:00;10;11;11
18.03.2024 21:00;13;10;11
18.03.2024 22:00;15;8;12
18.03.2024 23:00;12;7;11
19.03.2024 00:00;9;7;9
19.03.2024 01:00;8;7;8
19.03.2024 02:00;11;6;8
19.03.2024 03:00;8;6;8
19.03.2024 04:00;9;6;7
19.03.2024 05:00;11;7;7
19.03.2024 06:00;6;7;7
19.03.2024 07:00;5;7;7
19.03.2024 08:00;9;7;7
19.03.2024 09:00;7;7;7
19.03.2024 10:00;12;8;8
19.03.2024 11:00;13;9;10
19.03.2024 12:00;19;12;12
19.03.2024 13:00;18;17;
19.03.2024 14:00;17;21;18
19.03.2024 15:00;19;22;18
19.03.2024 16:00;15;18;18
19.03.2024 17:00;23;15;14
19.03.2024 18:00;17;12;12
19.03.2024 19:00;9;15;12
19.03.2024 20:00;8;16;17
19.03.2024 21:00;10;18;14
19.03.2024 22:00;11;20;11
19.03.2024 23:00;12;24;12
20.03.2024 00:00;14;26;11
20.03.2024 01:00;18;27;11
20.03.2024 02:00;13;27;12
20.03.2024 03:00;10;29;11
20.03.2024 04:00;14;29;11
20.03.2024 05:00;16;28;15
20.03.2024 06:00;21;28;19
20.03.2024 07:00;21;28;20
20.03.2024 08:00;20;29;19
20.03.2024 09:00;32;30;18
20.03.2024 10:00;28;29;18
20.03.2024 11:00;28;16;19
20.03.2024 12:00;25;10;18
20.03.2024 13:00;22;10;13
20.03.2024 14:00;17;10;10
20.03.2024 15:00;17;10;9
20.03.2024 16:00;10;11;9
20.03.2024 17:00;16;12;11
20.03.2024 18:00;9;13;12
20.03.2024 19:00;10;14;13
20.03.2024 20:00;18;20;18
20.03.2024 21:00;14;28;22
20.03.2024 22:00;8;27;24
20.03.2024 23:00;25;26;27
21.03.2024 00:00;21;23;26
21.03.2024 01:00;17;22;26
21.03.2024 02:00;12;26;27
21.03.2024 03:00;10;29;21
21.03.2024 04:00;22;31;18
21.03.2024 05:00;14;29;14
21.03.2024 06:00;12;24;11
21.03.2024 07:00;13;14;9
21.03.2024 08:00;7;12;10
21.03.2024 09:00;4;8;9
21.03.2024 10:00;5;8;10
21.03.2024 11:00;4;8;9
21.03.2024 12:00;3;7;7
21.03.2024 13:00;6;6;6
21.03.2024 14:00;5;4;5
21.03.2024 15:00;10;4;5
21.03.2024 16:00;3;4;5
21.03.2024 17:00;3;4;6
21.03.2024 18:00;2;4;5
21.03.2024 19:00;3;4;5
21.03.2024 20:00;3;5;5
21.03.2024 21:00;1;5;6
21.03.2024 22:00;7;5;6
21.03.2024 23:00;9;7;7
22.03.2024 00:00;11;7;10
22.03.2024 01:00;11;9;10
22.03.2024 02:00;9;13;13
22.03.2024 03:00;14;20;17
22.03.2024 04:00;15;25;22
22.03.2024 05:00;16;29;28
22.03.2024 06:00;24;33;32
22.03.2024 07:00;22;34;36
22.03.2024 08:00;30;36;38
22.03.2024 09:00;28;38;38
22.03.2024 10:00;34;39;30
22.03.2024 11:00;30;34;16
22.03.2024 12:00;31;24;11
22.03.2024 13:00;37;18;7
22.03.2024 14:00;32;13;6
22.03.2024 15:00;21;9;7
22.03.2024 16:00;21;7;7
22.03.2024 17:00;3;6;7
22.03.2024 18:00;1;7;7
22.03.2024 19:00;6;6;7
22.03.2024 20:00;11;7;7
22.03.2024 21:00;0;7;6
22.03.2024 22:00;1;6;6
22.03.2024 23:00;0;6;5
23.03.2024 00:00;4;6;4
23.03.2024 01:00;5;5;4
23.03.2024 02:00;5;5;4
23.03.2024 03:00;6;5;5
23.03.2024 04:00;8;6;5
23.03.2024 05:00;5;5;4
23.03.2024 06:00;5;6;4
23.03.2024 07:00;9;6;5
23.03.2024 08:00;8;6;5
23.03.2024 09:00;11;6;4
23.03.2024 10:00;13;5;4
23.03.2024 11:00;8;4;3
23.03.2024 12:00;8;4;4
23.03.2024 13:00;9;3;4
23.03.2024 14:00;12;2;4
23.03.2024 15:00;1;2;3
23.03.2024 16:00;7;2;3
23.03.2024 17:00;3;2;3
23.03.2024 18:00;3;2;4
23.03.2024 19:00;3;3;4
23.03.2024 20:00;3;3;4
23.03.2024 21:00;2;4;5
23.03.2024 22:00;3;4;5
23.03.2024 23:00;7;3;4
24.03.2024 00:00;6;3;4
24.03.2024 01:00;8;3;3
24.03.2024 02:00;7;4;3
24.03.2024 03:00;6;6;3
24.03.2024 04:00;5;8;4
24.03.2024 05:00;4;10;4
24.03.2024 06:00;7;9;4
24.03.2024 07:00;3;6;3
24.03.2024 08:00;8;8;2
24.03.2024 09:00;10;7;2
24.03.2024 10:00;8;6;2
24.03.2024 11:00;8;5;2
24.03.2024 12:00;7;4;2
24.03.2024 13:00;8;3;2
24.03.2024 14:00;1;4;2
24.03.2024 15:00;6;4;2
24.03.2024 16:00;2;4;2
24.03.2024 17:00;4;3;2
24.03.2024 18:00;6;3;3
24.03.2024 19:00;4;4;4
24.03.2024 20:00;4;4;3
24.03.2024 21:00;2;3;2
24.03.2024 22:00;2;3;3
24.03.2024 23:00;4;3;2
25.03.2024 00:00;5;3;2
25.03.2024 01:00;3;3;3
25.03.2024 02:00;11;4;5
25.03.2024 03:00;6;4;5
25.03.2024 04:00;5;4;5
25.03.2024 05:00;5;4;5
25.03.2024 06:00;3;5;6
25.03.2024 07:00;3;5;6
25.03.2024 08:00;6;5;6
25.03.2024 09:00;4;5;6
25.03.2024 10:00;7;5;5
25.03.2024 11:00;6;4;5
25.03.2024 12:00;8;4;5
25.03.2024 13:00;7;2;5
25.03.2024 14:00;8;2;5
25.03.2024 15:00;11;2;6
25.03.2024 16:00;9;3;6
25.03.2024 17:00;9;2;5
25.03.2024 18:00;3;3;5
25.03.2024 19:00;4;4;6
25.03.2024 20:00;1;7;13
25.03.2024 21:00;5;9;20
25.03.2024 22:00;2;10;8
25.03.2024 23:00;7;12;7
26.03.2024 00:00;6;9;6
26.03.2024 01:00;7;7;6
26.03.2024 02:00;8;6;6
26.03.2024 03:00;5;6;5
26.03.2024 04:00;7;7;5
26.03.2024 05:00;9;9;5
26.03.2024 06:00;8;8;5
26.03.2024 07:00;4;7;5
26.03.2024 08:00;8;6;5
26.03.2024 09:00;11;6;4
26.03.2024 10:00;14;4;4
26.03.2024 11:00;16;4;3
26.03.2024 12:00;13;4;4
26.03.2024 13:00;3;5;4
26.03.2024 14:00;16;6;5
26.03.2024 15:00;10;6;6
26.03.2024 16:00;11;6;7
26.03.2024 17:00;7;6;8
26.03.2024 18:00;9;7;9
26.03.2024 19:00;9;8;10
26.03.2024 20:00;8;10;10
26.03.2024 21:00;10;11;10
26.03.2024 22:00;11;12;11
26.03.2024 23:00;7;14;11
27.03.2024 00:00;9;14;11
27.03.2024 01:00;12;13;11
27.03.2024 02:00;20;13;11
27.03.2024 03:00;8;14;11
27.03.2024 04:00;13;14;12
27.03.2024 05:00;11;14;12
27.03.2024 06:00;13;14;12
27.03.2024 07:00;8;;13
27.03.2024 08:00;14;15;13
27.03.2024 09:00;18;14;12
27.03.2024 10:00;24;14;11
27.03.2024 11:00;24;13;10
27.03.2024 12:00;18;13;10
27.03.2024 13:00;22;12;12
27.03.2024 14:00;18;10;12
27.03.2024 15:00;13;10;13
27.03.2024 16:00;13;10;14
27.03.2024 17:00;13;10;12
27.03.2024 18:00;8;10;11
27.03.2024 19:00;10;11;12
27.03.2024 20:00;8;11;9
27.03.2024 21:00;9;10;8
27.03.2024 22:00;11;11;7
27.03.2024 23:00;11;12;7
28.03.2024 00:00;11;12;7
28.03.2024 01:00;11;12;9
28.03.2024 02:00;11;12;8
28.03.2024 03:00;8;14;7
28.03.2024 04:00;11;16;7
28.03.2024 05:00;6;7;9
28.03.2024 06:00;7;;8
28.03.2024 07:00;4;5;6
28.03.2024 08:00;4;6;6
28.03.2024 09:00;6;7;5
28.03.2024 10:00;8;5;4
28.03.2024 11:00;2;5;2
28.03.2024 12:00;10;5;2
28.03.2024 13:00;11;4;3
28.03.2024 14:00;8;4;4
28.03.2024 15:00;5;4;4
28.03.2024 16:00;3;4;4
28.03.2024 17:00;2;2;4
28.03.2024 18:00;4;3;4
28.03.2024 19:00;3;4;4
28.03.2024 20:00;8;5;4
28.03.2024 21:00;6;2;5
28.03.2024 22:00;3;2;4
28.03.2024 23:00;2;2;3
29.03.2024 00:00;6;2;2
29.03.2024 01:00;5;2;2
29.03.2024 02:00;8;2;2
29.03.2024 03:00;4;3;2
29.03.2024 04:00;4;3;2
29.03.2024 05:00;4;4;2
29.03.2024 06:00;3;4;2
29.03.2024 07:00;2;4;2
29.03.2024 08:00;2;4;2
29.03.2024 09:00;4;4;2
29.03.2024 10:00;2;3;2
29.03.2024 11:00;2;3;2
29.03.2024 12:00;7;3;3
29.03.2024 13:00;4;4;2
29.03.2024 14:00;6;4;2
29.03.2024 15:00;7;3;4
29.03.2024 16:00;5;3;5
29.03.2024 17:00;5;4;6
29.03.2024 18:00;8;5;7
29.03.2024 19:00;6;6;7
29.03.2024 20:00;5;8;16
29.03.2024 21:00;4;9;16
29.03.2024 22:00;4;8;11
29.03.2024 23:00;2;8;11
30.03.2024 00:00;5;7;10
30.03.2024 01:00;4;7;9
30.03.2024 02:00;4;6;10
30.03.2024 03:00;3;6;10
30.03.2024 04:00;3;7;10
30.03.2024 05:00;3;6;9
30.03.2024 06:00;3;6;9
30.03.2024 07:00;2;7;9
30.03.2024 08:00;2;7;9
30.03.2024 09:00;6;5;8
30.03.2024 10:00;7;4;6
30.03.2024 11:00;4;3;5
30.03.2024 12:00;9;4;5
30.03.2024 13:00;10;4;7
30.03.2024 14:00;12;5;9
30.03.2024 15:00;10;7;12
30.03.2024 16:00;16;9;16
30.03.2024 17:00;12;11;21
30.03.2024 18:00;14;14;25
30.03.2024 19:00;15;22;25
30.03.2024 20:00;18;24;24
30.03.2024 21:00;20;45;45
30.03.2024 22:00;14;31;77
30.03.2024 23:00;25;34;83
31.03.2024 00:00;25;45;75
31.03.2024 01:00;40;53;87
31.03.2024 03:00;50;83;36
31.03.2024 04:00;69;106;14
31.03.2024 05:00;69;119;14
31.03.2024 06:00;72;95;13
31.03.2024 07:00;63;20;13
31.03.2024 08:00;40;17;12
31.03.2024 09:00;33;16;11
31.03.2024 10:00;20;14;10
31.03.2024 11:00;14;14;10
31.03.2024 12:00;19;15;10
31.03.2024 13:00;11;15;13
31.03.2024 14:00;16;14;10
31.03.2024 15:00;13;12;12
31.03.2024 16:00;17;10;15
31.03.2024 17:00;10;8;11
31.03.2024 18:00;14;8;9
31.03.2024 19:00;7;8;9
31.03.2024 20:00;10;8;11
31.03.2024 21:00;10;10;13
31.03.2024 22:00;10;15;20
31.03.2024 23:00;13;15;38